Tracking 29594 objects as of 21-Sep-2024
HD Live streaming from Space Station
objects crossing your sky now

FENGYUN 1C DEB

Track FENGYUN 1C DEB now!
10-day predictions


NORAD ID: 32192
Int'l Code: 1999-025CUN
Perigee: 830.6 km
Apogee: 1,097.9 km
Inclination: 98.7 °
Period: 104.2 minutes
Semi major axis: 7335 km
RCS: 0.0039 m2 (small)
Launch date: May 10, 1999
Source: People's Republic of China (PRC)
Launch site: Taiyaun Space Center, China (TSC)

Note: This is SATELLITE DEBRIS
Your satellite tracking list
Your tracking list is empty




NASA's NSSDC Master Catalog

Two Line Element Set (TLE):
1 32192U 99025CUN 24264.44480045  .00000974  00000-0  83404-3 0  9991
2 32192  98.6990 164.2928 0182215 297.5670  60.7079 13.81915214865190
Source of the keplerian elements: AFSPC